FENGYUN 1C DEB

Satellite information

Favourite Embed

Satellite Type and Status

DEBRISIN ORBIT

Key statistics

Satellite FENGYUN 1C DEB at a glance.

Uptime

9498

Days in orbit

Revolutions

≈ 14.3

Per day

Orbit

SSO

Sun Synchronous Orbit

Inclination

98.9

Latest

Satellite identification and parameters

Extended collection of information and parameters for FENGYUN 1C DEB.

Object identification

Identified? True

Debris? True

Object name: FENGYUN 1C DEB

International designator: 1999-025QS

Object number (NORAD): 30089

Object ID (CCSDS): 30089

Country: PEOPLES REPUBLIC OF CHINA (PRC)

Current information (Y/N): Y

RCS size: SMALL

Orbital parameters

Period: 100.701 minutes

Inclination: 98.9178 deg

SMA: 7169.961 km

Apoapsis: 845.752 km

Periapsis: 737.9 km

RAAN: 29.6037 deg

Eccentricy: 0.0075211

Argument of periapsis: 123.0913 deg

Mean anomaly: 0.8264 deg

Mean motion: 14.29972069 rev/day

Mean motion (dot): 0.00000669 rev/day2

B* drag term: 0.00026888 1/REarth

Two-line elements (TLE)

Creation date: May 9, 2025, 5:15 p.m.

Reference frame: TEME

Reference center: EARTH

Epoch: May 9, 2025, 6:49 a.m. UTC

TLE line 0: 0 FENGYUN 1C DEB

TLE line 1: 1 30089U 99025QS 25129.28465689 .00000669 00000-0 26888-3 0 9998

TLE line 2: 2 30089 98.9178 29.6037 0075211 123.0913 0.8264 14.29972069953710

Live tracking on map

Real-time ground track for satellite FENGYUN 1C DEB.

In-orbit conjunctions

A list of the most updated potential collisions computed for object FENGYUN 1C DEB.

Target Orbit TCA Probability of collision Miss distance Type
CZ-6A DEB LEO 2024-10-24 14:04:49 0.0003900811 57.0 (m) DEBRIS

Associated space launch

Chinese polar orbiting meteorological satellite

FENGYUN 1C DEB was lifted into orbit during the mission ‘Long March 4B | Feng Yun 1C’, on board a Long March 4B space rocket.

The launch took place on May 10, 1999, 1:33 a.m. from Launch Complex 7.

For more information about the launch, click the button.

Launch to space Long March 4B | Feng Yun 1C
Long March 4B | Feng Yun 1C

Agency: N/A

Status: Launch Successful

Launch date: May 10, 1999, 1:33 a.m. UTC

Rocket: Long March 4B

Launch pad: Launch Complex 7

Location: Taiyuan Satellite Launch Center, People's Republic of China

...

Latest news about this satellite

There are no fresh news available about this satellite. Check back as we update our databases every day.


Newsletter sign-up

Weekly statistics, charts and insights to help you stay on top of the space industry.